Location: Colonia Mina de C?rbuni
(46.1667°N, 22.7167°E)
Time: 12:55:50
(UTC+00:00)

ATLAS 5 CENTAUR R/B - Pass Details

Date: 04 February 2023
Orbit: 460 x 1178 km, 63.3° (Epoch: 24 March)

Event Time Altitude Azimuth Distance (km) Brightness Sun altitude
Rises 18:14:00 0° 323° (NW) 2,862 5.5 -27.2°
Reaches altitude 10° 18:17:29 10° 353° (N) 2,110 4.4 -27.8°
Enters shadow 18:18:05 11° 1° (N) 2,052 4.3 -27.9°
